﻿測定場所 (Monitoring sites),日付 (Measurement date),時間 (Measurement time),線量率 最大値 (max) μGy/h,線量率 最小値 (min) μGy/h,線量率 平均値 (average) μGy/h,
江戸川 (Edogawa),2023-03-26,23:01～24:00,0.0415,0.0368,0.0392,
江戸川 (Edogawa),2023-03-26,22:01～23:00,0.0416,0.0362,0.0392,
江戸川 (Edogawa),2023-03-26,21:01～22:00,0.0417,0.0354,0.0389,
江戸川 (Edogawa),2023-03-26,20:01～21:00,0.0407,0.0359,0.0380,
江戸川 (Edogawa),2023-03-26,19:01～20:00,0.0425,0.0360,0.0391,
江戸川 (Edogawa),2023-03-26,18:01～19:00,0.0444,0.0361,0.0402,
江戸川 (Edogawa),2023-03-26,17:01～18:00,0.0490,0.0411,0.0447,
江戸川 (Edogawa),2023-03-26,16:01～17:00,0.0520,0.0442,0.0480,
江戸川 (Edogawa),2023-03-26,15:01～16:00,0.0585,0.0492,0.0543,
江戸川 (Edogawa),2023-03-26,14:01～15:00,0.0625,0.0531,0.0574,
江戸川 (Edogawa),2023-03-26,13:01～14:00,0.0618,0.0519,0.0573,
江戸川 (Edogawa),2023-03-26,12:01～13:00,0.0607,0.0534,0.0568,
江戸川 (Edogawa),2023-03-26,11:01～12:00,0.0553,0.0481,0.0512,
江戸川 (Edogawa),2023-03-26,10:01～11:00,0.0504,0.0419,0.0458,
江戸川 (Edogawa),2023-03-26,09:01～10:00,0.0449,0.0386,0.0411,
江戸川 (Edogawa),2023-03-26,08:01～09:00,0.0429,0.0375,0.0401,
江戸川 (Edogawa),2023-03-26,07:01～08:00,0.0442,0.0377,0.0408,
江戸川 (Edogawa),2023-03-26,06:01～07:00,0.0458,0.0396,0.0418,
江戸川 (Edogawa),2023-03-26,05:01～06:00,0.0425,0.0365,0.0392,
江戸川 (Edogawa),2023-03-26,04:01～05:00,0.0421,0.0356,0.0388,
江戸川 (Edogawa),2023-03-26,03:01～04:00,0.0443,0.0364,0.0401,
江戸川 (Edogawa),2023-03-26,02:01～03:00,0.0452,0.0374,0.0411,
江戸川 (Edogawa),2023-03-26,01:01～02:00,0.0506,0.0421,0.0458,
江戸川 (Edogawa),2023-03-26,00:01～01:00,0.0515,0.0407,0.0458,
江戸川 (Edogawa),2023-03-25,23:01～24:00,0.0444,0.0363,0.0403,
江戸川 (Edogawa),2023-03-25,22:01～23:00,0.0427,0.0365,0.0396,
江戸川 (Edogawa),2023-03-25,21:01～22:00,0.0429,0.0369,0.0403,
江戸川 (Edogawa),2023-03-25,20:01～21:00,0.0430,0.0366,0.0393,
江戸川 (Edogawa),2023-03-25,19:01～20:00,0.0402,0.0362,0.0381,
江戸川 (Edogawa),2023-03-25,18:01～19:00,0.0404,0.0357,0.0383,
江戸川 (Edogawa),2023-03-25,17:01～18:00,0.0415,0.0364,0.0385,
江戸川 (Edogawa),2023-03-25,16:01～17:00,0.0426,0.0361,0.0393,
江戸川 (Edogawa),2023-03-25,15:01～16:00,0.0429,0.0361,0.0394,
江戸川 (Edogawa),2023-03-25,14:01～15:00,0.0472,0.0376,0.0425,
江戸川 (Edogawa),2023-03-25,13:01～14:00,0.0553,0.0425,0.0492,
江戸川 (Edogawa),2023-03-25,12:01～13:00,0.0572,0.0489,0.0534,
江戸川 (Edogawa),2023-03-25,11:01～12:00,0.0601,0.0518,0.0557,
江戸川 (Edogawa),2023-03-25,10:01～11:00,0.0611,0.0520,0.0565,
江戸川 (Edogawa),2023-03-25,09:01～10:00,0.0590,0.0512,0.0546,
江戸川 (Edogawa),2023-03-25,08:01～09:00,0.0612,0.0518,0.0555,
江戸川 (Edogawa),2023-03-25,07:01～08:00,0.0623,0.0531,0.0569,
江戸川 (Edogawa),2023-03-25,06:01～07:00,0.0577,0.0506,0.0541,
江戸川 (Edogawa),2023-03-25,05:01～06:00,0.0543,0.0447,0.0489,
江戸川 (Edogawa),2023-03-25,04:01～05:00,0.0508,0.0443,0.0468,
江戸川 (Edogawa),2023-03-25,03:01～04:00,0.0486,0.0410,0.0444,
江戸川 (Edogawa),2023-03-25,02:01～03:00,0.0447,0.0386,0.0413,
江戸川 (Edogawa),2023-03-25,01:01～02:00,0.0498,0.0398,0.0448,
江戸川 (Edogawa),2023-03-25,00:01～01:00,0.0515,0.0445,0.0482,
江戸川 (Edogawa),2023-03-24,23:01～24:00,0.0549,0.0459,0.0498,
江戸川 (Edogawa),2023-03-24,22:01～23:00,0.0571,0.0490,0.0534,
江戸川 (Edogawa),2023-03-24,21:01～22:00,0.0542,0.0426,0.0481,
江戸川 (Edogawa),2023-03-24,20:01～21:00,0.0454,0.0371,0.0403,
江戸川 (Edogawa),2023-03-24,19:01～20:00,0.0438,0.0369,0.0401,
江戸川 (Edogawa),2023-03-24,18:01～19:00,0.0487,0.0395,0.0436,
江戸川 (Edogawa),2023-03-24,17:01～18:00,0.0599,0.0437,0.0515,
江戸川 (Edogawa),2023-03-24,16:01～17:00,0.0650,0.0547,0.0603,
江戸川 (Edogawa),2023-03-24,15:01～16:00,0.0621,0.0392,0.0505,
江戸川 (Edogawa),2023-03-24,14:01～15:00,0.0458,0.0373,0.0411,
江戸川 (Edogawa),2023-03-24,13:01～14:00,0.0425,0.0367,0.0396,
江戸川 (Edogawa),2023-03-24,12:01～13:00,0.0431,0.0365,0.0398,
江戸川 (Edogawa),2023-03-24,11:01～12:00,0.0433,0.0366,0.0400,
江戸川 (Edogawa),2023-03-24,10:01～11:00,0.0431,0.0368,0.0402,
江戸川 (Edogawa),2023-03-24,09:01～10:00,0.0426,0.0368,0.0399,
江戸川 (Edogawa),2023-03-24,08:01～09:00,0.0426,0.0363,0.0393,
江戸川 (Edogawa),2023-03-24,07:01～08:00,0.0427,0.0365,0.0394,
江戸川 (Edogawa),2023-03-24,06:01～07:00,0.0427,0.0365,0.0393,
江戸川 (Edogawa),2023-03-24,05:01～06:00,0.0423,0.0367,0.0394,
江戸川 (Edogawa),2023-03-24,04:01～05:00,0.0424,0.0363,0.0388,
江戸川 (Edogawa),2023-03-24,03:01～04:00,0.0434,0.0365,0.0392,
江戸川 (Edogawa),2023-03-24,02:01～03:00,0.0431,0.0362,0.0387,
江戸川 (Edogawa),2023-03-24,01:01～02:00,0.0432,0.0364,0.0391,
江戸川 (Edogawa),2023-03-24,00:01～01:00,0.0445,0.0374,0.0408,
江戸川 (Edogawa),2023-03-23,23:01～24:00,0.0470,0.0383,0.0420,
江戸川 (Edogawa),2023-03-23,22:01～23:00,0.0473,0.0412,0.0441,
江戸川 (Edogawa),2023-03-23,21:01～22:00,0.0459,0.0398,0.0430,
江戸川 (Edogawa),2023-03-23,20:01～21:00,0.0487,0.0407,0.0445,
江戸川 (Edogawa),2023-03-23,19:01～20:00,0.0495,0.0400,0.0451,
江戸川 (Edogawa),2023-03-23,18:01～19:00,0.0463,0.0387,0.0424,
江戸川 (Edogawa),2023-03-23,17:01～18:00,0.0484,0.0395,0.0424,
江戸川 (Edogawa),2023-03-23,16:01～17:00,0.0450,0.0370,0.0404,
江戸川 (Edogawa),2023-03-23,15:01～16:00,0.0501,0.0399,0.0437,
江戸川 (Edogawa),2023-03-23,14:01～15:00,0.0493,0.0432,0.0459,
江戸川 (Edogawa),2023-03-23,13:01～14:00,0.0481,0.0416,0.0450,
江戸川 (Edogawa),2023-03-23,12:01～13:00,0.0477,0.0417,0.0447,
江戸川 (Edogawa),2023-03-23,11:01～12:00,0.0501,0.0417,0.0461,
江戸川 (Edogawa),2023-03-23,10:01～11:00,0.0480,0.0401,0.0438,
江戸川 (Edogawa),2023-03-23,09:01～10:00,0.0452,0.0382,0.0413,
江戸川 (Edogawa),2023-03-23,08:01～09:00,0.0433,0.0374,0.0400,
江戸川 (Edogawa),2023-03-23,07:01～08:00,0.0420,0.0366,0.0398,
江戸川 (Edogawa),2023-03-23,06:01～07:00,0.0427,0.0369,0.0399,
江戸川 (Edogawa),2023-03-23,05:01～06:00,0.0423,0.0365,0.0393,
江戸川 (Edogawa),2023-03-23,04:01～05:00,0.0424,0.0360,0.0395,
江戸川 (Edogawa),2023-03-23,03:01～04:00,0.0425,0.0367,0.0394,
江戸川 (Edogawa),2023-03-23,02:01～03:00,0.0429,0.0367,0.0396,
江戸川 (Edogawa),2023-03-23,01:01～02:00,0.0425,0.0369,0.0395,
江戸川 (Edogawa),2023-03-23,00:01～01:00,0.0442,0.0368,0.0400,
江戸川 (Edogawa),2023-03-22,23:01～24:00,0.0421,0.0370,0.0395,
江戸川 (Edogawa),2023-03-22,22:01～23:00,0.0425,0.0373,0.0397,
江戸川 (Edogawa),2023-03-22,21:01～22:00,0.0428,0.0366,0.0400,
江戸川 (Edogawa),2023-03-22,20:01～21:00,0.0425,0.0370,0.0396,
江戸川 (Edogawa),2023-03-22,19:01～20:00,0.0418,0.0368,0.0397,
江戸川 (Edogawa),2023-03-22,18:01～19:00,0.0433,0.0368,0.0397,
江戸川 (Edogawa),2023-03-22,17:01～18:00,0.0428,0.0371,0.0396,
江戸川 (Edogawa),2023-03-22,16:01～17:00,0.0436,0.0369,0.0397,
江戸川 (Edogawa),2023-03-22,15:01～16:00,0.0427,0.0370,0.0402,
江戸川 (Edogawa),2023-03-22,14:01～15:00,0.0441,0.0364,0.0399,
江戸川 (Edogawa),2023-03-22,13:01～14:00,0.0422,0.0369,0.0401,
江戸川 (Edogawa),2023-03-22,12:01～13:00,0.0432,0.0366,0.0401,
江戸川 (Edogawa),2023-03-22,11:01～12:00,0.0434,0.0378,0.0404,
江戸川 (Edogawa),2023-03-22,10:01～11:00,0.0438,0.0373,0.0402,
江戸川 (Edogawa),2023-03-22,09:01～10:00,0.0438,0.0374,0.0406,
江戸川 (Edogawa),2023-03-22,08:01～09:00,0.0428,0.0368,0.0406,
江戸川 (Edogawa),2023-03-22,07:01～08:00,0.0436,0.0385,0.0409,
江戸川 (Edogawa),2023-03-22,06:01～07:00,0.0430,0.0383,0.0405,
江戸川 (Edogawa),2023-03-22,05:01～06:00,0.0432,0.0370,0.0400,
江戸川 (Edogawa),2023-03-22,04:01～05:00,0.0434,0.0365,0.0401,
江戸川 (Edogawa),2023-03-22,03:01～04:00,0.0434,0.0369,0.0397,
江戸川 (Edogawa),2023-03-22,02:01～03:00,0.0426,0.0369,0.0397,
江戸川 (Edogawa),2023-03-22,01:01～02:00,0.0436,0.0364,0.0398,
江戸川 (Edogawa),2023-03-22,00:01～01:00,0.0425,0.0361,0.0392,
江戸川 (Edogawa),2023-03-21,23:01～24:00,0.0426,0.0370,0.0399,
江戸川 (Edogawa),2023-03-21,22:01～23:00,0.0426,0.0368,0.0397,
江戸川 (Edogawa),2023-03-21,21:01～22:00,0.0419,0.0375,0.0398,
江戸川 (Edogawa),2023-03-21,20:01～21:00,0.0430,0.0367,0.0398,
江戸川 (Edogawa),2023-03-21,19:01～20:00,0.0426,0.0366,0.0394,
江戸川 (Edogawa),2023-03-21,18:01～19:00,0.0423,0.0366,0.0394,
江戸川 (Edogawa),2023-03-21,17:01～18:00,0.0424,0.0370,0.0397,
江戸川 (Edogawa),2023-03-21,16:01～17:00,0.0425,0.0368,0.0397,
江戸川 (Edogawa),2023-03-21,15:01～16:00,0.0423,0.0371,0.0397,
江戸川 (Edogawa),2023-03-21,14:01～15:00,0.0438,0.0363,0.0394,
江戸川 (Edogawa),2023-03-21,13:01～14:00,0.0437,0.0367,0.0399,
江戸川 (Edogawa),2023-03-21,12:01～13:00,0.0420,0.0363,0.0396,
江戸川 (Edogawa),2023-03-21,11:01～12:00,0.0424,0.0379,0.0402,
江戸川 (Edogawa),2023-03-21,10:01～11:00,0.0438,0.0368,0.0404,
江戸川 (Edogawa),2023-03-21,09:01～10:00,0.0433,0.0372,0.0404,
江戸川 (Edogawa),2023-03-21,08:01～09:00,0.0443,0.0365,0.0401,
江戸川 (Edogawa),2023-03-21,07:01～08:00,0.0441,0.0374,0.0404,
江戸川 (Edogawa),2023-03-21,06:01～07:00,0.0431,0.0365,0.0399,
江戸川 (Edogawa),2023-03-21,05:01～06:00,0.0423,0.0363,0.0394,
江戸川 (Edogawa),2023-03-21,04:01～05:00,0.0421,0.0365,0.0392,
江戸川 (Edogawa),2023-03-21,03:01～04:00,0.0438,0.0367,0.0394,
江戸川 (Edogawa),2023-03-21,02:01～03:00,0.0424,0.0361,0.0392,
江戸川 (Edogawa),2023-03-21,01:01～02:00,0.0417,0.0362,0.0390,
江戸川 (Edogawa),2023-03-21,00:01～01:00,0.0427,0.0367,0.0393,
江戸川 (Edogawa),2023-03-20,23:01～24:00,0.0425,0.0365,0.0391,
江戸川 (Edogawa),2023-03-20,22:01～23:00,0.0428,0.0368,0.0395,
江戸川 (Edogawa),2023-03-20,21:01～22:00,0.0435,0.0365,0.0390,
江戸川 (Edogawa),2023-03-20,20:01～21:00,0.0428,0.0361,0.0392,
江戸川 (Edogawa),2023-03-20,19:01～20:00,0.0421,0.0369,0.0392,
江戸川 (Edogawa),2023-03-20,18:01～19:00,0.0417,0.0365,0.0392,
江戸川 (Edogawa),2023-03-20,17:01～18:00,0.0437,0.0367,0.0393,
江戸川 (Edogawa),2023-03-20,16:01～17:00,0.0429,0.0366,0.0399,
江戸川 (Edogawa),2023-03-20,15:01～16:00,0.0430,0.0367,0.0399,
江戸川 (Edogawa),2023-03-20,14:01～15:00,0.0423,0.0365,0.0397,
江戸川 (Edogawa),2023-03-20,13:01～14:00,0.0436,0.0377,0.0404,
江戸川 (Edogawa),2023-03-20,12:01～13:00,0.0425,0.0370,0.0397,
江戸川 (Edogawa),2023-03-20,11:01～12:00,0.0421,0.0366,0.0400,
江戸川 (Edogawa),2023-03-20,10:01～11:00,0.0428,0.0376,0.0402,
江戸川 (Edogawa),2023-03-20,09:01～10:00,0.0445,0.0362,0.0400,
江戸川 (Edogawa),2023-03-20,08:01～09:00,0.0437,0.0362,0.0400,
江戸川 (Edogawa),2023-03-20,07:01～08:00,0.0437,0.0370,0.0402,
江戸川 (Edogawa),2023-03-20,06:01～07:00,0.0433,0.0369,0.0399,
江戸川 (Edogawa),2023-03-20,05:01～06:00,0.0425,0.0365,0.0395,
江戸川 (Edogawa),2023-03-20,04:01～05:00,0.0438,0.0367,0.0394,
江戸川 (Edogawa),2023-03-20,03:01～04:00,0.0434,0.0369,0.0392,
江戸川 (Edogawa),2023-03-20,02:01～03:00,0.0426,0.0362,0.0392,
江戸川 (Edogawa),2023-03-20,01:01～02:00,0.0420,0.0366,0.0387,
江戸川 (Edogawa),2023-03-20,00:01～01:00,0.0419,0.0367,0.0389,
